Location: Moscow Pond
(43.6842°N, 73.2366°W)
Time: 21:49:39
(UTC+00:00)

SL-08 RB Rocket - Pass Details

Date: 08 November 2025
Orbit: 632 x 667 km, 97.8° (Epoch: 04 December)

Event Time Altitude Azimuth Distance (km) Brightness Sun altitude
Rises 09:40:00 0° 7° (N) 3,010 7.1 -21.6°
Reaches altitude 10° 09:42:18 10° 1° (N) 2,089 6.2 -21.2°
Enters shadow 09:46:30 47° 296° (WNW) 871 3.9 -20.4°
